Weather History for K9V9 - January, 2013

Change the Weather History Date:

Monday, January 14, 2013

  Actual Average Record
Temperature  
Mean Temperature 8 °F -  
Max Temperature 18 °F 26 °F 61 °F (2006)
Min Temperature -2 °F 7 °F -14 °F (2009)
Degree Days  
Heating Degree Days 57    
Moisture  
Dew Point 0 °F    
Average Humidity 72    
Maximum Humidity 83    
Minimum Humidity 56    
Precipitation  
Precipitation 0.00 in - - ()
Sea Level Pressure  
Sea Level Pressure 30.35 in    
Wind  
Wind Speed 6 mph (SSW)    
Max Wind Speed 14 mph    
Max Gust Speed 78 mph    
Averages and records for this station are not official NWS values.
T = Trace of Precipitation, MM = Missing Value Source: NWS Daily Summary

Daily Weather History Graph

Daily Weather History Graph

Search for Another Location

Airport or City:

Trip Planner

Search our weather history database for the weather conditions in past years. The results will help you decide how hot, cold, wet, or windy it might be!

Date:

Astronomy

Jan. 14, 2013 Rise Set
Actual Time 8:08 AM CST 5:24 PM CST
Civil Twilight 7:36 AM CST 5:56 PM CST
Nautical Twilight 7:00 AM CST 6:32 PM CST
Astronomical Twilight 6:26 AM CST 7:06 PM CST
Moon 9:35 AM CST (1/14) 9:21 PM CST (1/14)
Length of Visible Light 10h 20m
Length of Day
9h 16m
Waxing Crescent, 11% of the Moon is Illuminated
Jan 14
Waxing Crescent
Jan 18
First Quarter
Jan 26
Full
Feb 3
Last Quarter
Feb 10
New

Hourly Weather History & Observations

Time (CST) Temp. Windchill Dew Point Humidity Pressure Visibility Wind Dir Wind Speed Gust Speed Precip Events Conditions
12:52 AM 3.0 °F -13.3 °F -2.0 °F 80% 30.37 in - West 11.5 mph - N/A   Unknown
1:52 AM 1.9 °F -11.8 °F -2.9 °F 80% 30.37 in - WNW 8.1 mph - N/A   Unknown
2:52 AM 1.0 °F -10.3 °F -4.0 °F 79% 30.38 in - West 5.8 mph - N/A   Unknown
3:52 AM 3.9 °F - -2.0 °F 76% 30.38 in - Calm Calm - N/A   Unknown
4:52 AM 1.9 °F - -4.0 °F 76% 30.39 in - Calm Calm - N/A   Unknown
5:52 AM 1.0 °F - -4.0 °F 79% 30.39 in - Calm Calm - N/A   Unknown
6:52 AM -0.0 °F - -4.0 °F 83% 30.40 in - Calm Calm - N/A   Unknown
7:52 AM -2.9 °F -13.3 °F -9.0 °F 75% 30.42 in - SSW 4.6 mph - N/A   Unknown
8:52 AM -0.9 °F -12.7 °F -5.1 °F 83% 30.42 in - SSE 5.8 mph - N/A   Unknown
9:52 AM 1.0 °F -6.7 °F -4.0 °F 79% 30.42 in - South 3.5 mph - N/A   Unknown
10:52 AM 5.0 °F -6.9 °F -0.9 °F 76% 30.40 in - SSE 6.9 mph - N/A   Unknown
11:52 AM 9.0 °F 0.6 °F 1.0 °F 70% 30.38 in - SSE 4.6 mph - N/A   Unknown
12:52 PM 12.9 °F 6.9 °F 3.0 °F 65% 30.35 in - West 3.5 mph - N/A   Unknown
1:52 PM 17.1 °F - 3.9 °F 56% 30.32 in - Calm Calm - N/A   Unknown
2:52 PM 17.1 °F - 6.1 °F 62% 30.32 in - Calm Calm - N/A   Unknown
3:52 PM 18.0 °F - 7.0 °F 62% 30.32 in - Calm Calm - N/A   Unknown
4:52 PM 17.1 °F 11.7 °F 7.0 °F 65% 30.33 in - South 3.5 mph - N/A   Unknown
5:52 PM 12.9 °F 5.2 °F 5.0 °F 71% 30.34 in - South 4.6 mph - N/A   Unknown
6:17 PM 10.4 °F -4.8 °F 3.2 °F 73% 30.22 in - SE 12.7 mph 78.3 mph N/A   Squalls
6:30 PM 8.6 °F - 1.4 °F 73% 30.22 in - North - - N/A   Unknown
6:52 PM 9.0 °F -2.2 °F 3.0 °F 77% 30.34 in - South 6.9 mph - N/A   Unknown
7:52 PM 15.1 °F 0.5 °F 3.9 °F 61% 30.33 in - WSW 13.8 mph - N/A   Unknown
8:52 PM 10.9 °F 1.4 °F 1.9 °F 67% 30.32 in - WSW 5.8 mph - N/A   Unknown
9:52 PM 8.1 °F -0.5 °F -0.0 °F 70% 30.32 in - SW 4.6 mph - N/A   Unknown
10:52 PM 7.0 °F -7.5 °F -0.9 °F 70% 30.31 in - SW 10.4 mph - N/A   Unknown
11:52 PM 8.1 °F - -0.0 °F 70% 30.29 in - Calm Calm - N/A   Unknown